Home > Weather > Akron > Past weeks

Flag for USA Past Weather in Akron, Ohio, USA — Yesterday and Last 2 Weeks

Now
82 °F

Passing clouds.


Feels Like: 84 °F
Forecast: 74 / 89 °F
Wind: 10 mph from Southwest

Location: Akron Fulton International Airport

Current Time: Aug 24, 2016 at 9:15:12 PM

Latest Report: Aug 24, 2016 at 7:54 PM


Visibility: 10 mi

Pressure: 30.05 "Hg

Humidity: 58%

Dew Point: 66 °F

Location of AkronLocation

Past Weather in Akron — Graph

°F

Akron Temperature Yesterday

Maximum temperature yesterday: 83 °F (at 4:54 PM)
Minimum temperature yesterday: 57 °F (at 2:54 AM)
Average temperature yesterday: 70 °F

High & Low Weather Summary for the Past Weeks

 TemperatureHumidityPressure
High94 °F (Aug 12, 1:54 PM)93% (Aug 17, 5:54 AM)30.30 "Hg (Aug 17, 5:54 AM)
Low57 °F (Aug 23, 2:54 AM)38% (Aug 23, 4:54 PM)29.68 "Hg (Aug 21, 2:54 AM)
Average77 °F72%30.02 "Hg
* Reported Aug 9 7:54 PM — Aug 24 7:54 PM, Akron, Weather by CustomWeather, © 2016

Note: Actual official high and low records may vary slightly from our data, if they occured in-between our weather recording intervals... More about our weather records

Advertising

Akron Weather History for the Previous 24 Hours

Scroll right to see more
 ConditionsComfort  
Time TempWeatherWind HumidityBarometerVisibility
7:54 PM
Wed, Aug 24
82 °FPassing clouds.10 mph58%30.05 "Hg10 mi
6:54 PM83 °FPassing clouds.12 mph57%30.06 "Hg10 mi
5:54 PM84 °FOvercast.13 mph55%30.08 "Hg10 mi
4:54 PM87 °FPartly sunny.16 mph50%30.08 "Hg10 mi
3:54 PM86 °FSunny.9 mph48%30.09 "Hg10 mi
2:54 PM87 °FPartly sunny.14 mph45%30.12 "Hg10 mi
1:54 PM85 °FScattered clouds.14 mph45%30.14 "Hg10 mi
12:54 PM84 °FSunny.14 mph45%30.16 "Hg10 mi
11:54 AM81 °FSunny.13 mph49%30.17 "Hg10 mi
10:54 AM80 °FSunny.13 mph52%30.18 "Hg10 mi
9:54 AM76 °FSunny.10 mph58%30.19 "Hg10 mi
8:54 AM73 °FSunny.6 mph64%30.21 "Hg10 mi
7:54 AM67 °FSunny.No wind76%30.21 "Hg10 mi
6:54 AM64 °FClear.No wind78%30.21 "Hg10 mi
5:54 AM59 °FClear.No wind87%30.20 "Hg10 mi
4:54 AM61 °FClear.No wind83%30.20 "Hg10 mi
3:54 AM59 °FClear.No wind87%30.20 "Hg10 mi
2:54 AM63 °FClear.No wind78%30.20 "Hg10 mi
1:54 AM64 °FClear.No wind78%30.20 "Hg10 mi
12:54 AM62 °FClear.No wind86%30.22 "Hg10 mi
11:54 PM
Tue, Aug 23
64 °FClear.No wind78%30.23 "Hg10 mi
10:54 PM68 °FClear.No wind70%30.24 "Hg10 mi
9:54 PM70 °FClear.3 mph64%30.24 "Hg10 mi
Weather by CustomWeather, © 2016

See weather overviewHow to use our weather pages